Regional Weather Roundup
Issued by NWS

Home | Current Version | Previous Version | Graphics & Text | Print | Product List | Glossary On
Versions: 1 2 3 4 5 6 7 8 9 10 11 12 13 14 15 16 17 18 19 20 21 22 23 24 25 26 27 28 29 30 31 32 33 34 35 36 37 38 39 40 41 42 43 44 45 46 47 48 49 50
000
ASUS43 KIND 282009
RWRIN

WEATHER ROUNDUP FOR INDIANA
NATIONAL WEATHER SERVICE INDIANAPOLIS IN
300 PM EST SUN DEC 28 2014

NOTE: "FAIR" INDICATES FEW OR NO CLOUDS BELOW 12,000 FEET WITH NO
SIGNIFICANT WEATHER AND/OR OBSTRUCTIONS TO VISIBILITY.

* - STATION DOES NOT REPORT WEATHER SUCH AS PRECIPITATION OR FOG.

+ - STATION NOT QUALITY CONTROLLED BY THE NATIONAL WEATHER SERVICE.
    USE DATA WITH CAUTION...ESPECIALLY DEWPOINT AND RELATIVE
    HUMIDITY OBSERVATIONS.

INZ001>003-010>013-019-020-282100-
NORTHWEST INDIANA

CITY           SKY/WX    TMP DP  RH WIND       PRES   REMARKS
GARY /AIRPORT/ PTSUNNY   32  10  40 SW6       30.16F WCI  26
KNOX *+        PTSUNNY   32  22  67 SW7       30.15S WCI  26
LA PORTE +     PTSUNNY   35  25  65 W6        30.15S WCI  30
MICHIGAN CITY+ PTSUNNY   32  19  59 NW5       30.15S WCI  27
MONTICELLO +   PTSUNNY   30  25  81 CALM      30.16F
RENSSELAER +   PTSUNNY   32  28  86 W3        30.16
VALPARAISO     PTSUNNY   33  21  61 W7        30.15S WCI  27

$$

LMZ046-743>745-282100-
SOUTHERN LAKE MICHIGAN

STATION/POSITION TIME  TEMP WIND        PRES
                       AIR  DIR/SP/G
                 (UTC) (F)  (DEG/KT/KT) (MB)
MICHIGAN CITY    2000   30  240/ 11/ 12   N/A

$$

INZ004-005-014>016-021>024-282100-
NORTH CENTRAL INDIANA

CITY           SKY/WX    TMP DP  RH WIND       PRES   REMARKS
GOSHEN         PTSUNNY   34  24  67 W9        30.13R WCI  27
LOGANSPORT +   CLOUDY    30  25  80 W6        30.17R WCI  24
PERU/GRISSOM   CLOUDY    30  29  98 W5        30.15R WCI  25
ROCHESTER +    CLOUDY    34  28  80 W3        30.16R
SOUTH BEND     PTSUNNY   36  23  59 W7        30.14R
WARSAW +       CLOUDY    32  27  80 W7        30.14R WCI  26

$$

INZ006>009-017-018-025>027-282100-
NORTHEAST INDIANA

CITY           SKY/WX    TMP DP  RH WIND       PRES   REMARKS
ANGOLA *+      SUNNY     34  21  60 W6        30.11  WCI  29
AUBURN +       CLOUDY    34  27  75 W6        30.13R WCI  29
FORT WAYNE     CLOUDY    34  27  75 W7        30.14R WCI  28
HUNTINGTON +   CLOUDY    33  24  71 W5        30.14R WCI  28

$$

INZ028-029-035-036-043>045-051>053-282100-
WEST CENTRAL INDIANA

CITY           SKY/WX    TMP DP  RH WIND       PRES   REMARKS
GREENCASTLE +  CLOUDY    32  21  64 CALM      30.17
LAFAYETTE      CLOUDY    29  23  78 NW6       30.17F WCI  23
TERRE HAUTE    CLOUDY    31  19  61 NW6       30.19S WCI  25

$$

INZ030>032-037>040-046>048-054>057-064-065-282100-
CENTRAL INDIANA

CITY           SKY/WX    TMP DP  RH WIND       PRES   REMARKS
CP ATTERBURY + CLOUDY    32  28  86 MISG      30.16S
COLUMBUS       CLOUDY    32  27  80 NW6       30.17  WCI  26
FRANKFORT +    CLOUDY    30  26  84 CALM      30.17S
INDIANAPOLIS   CLOUDY    30  25  81 W5        30.15S WCI  25
-EAGLE CREEK   CLOUDY    30  25  81 NW5       30.15S WCI  25
KOKOMO *+      CLOUDY    30  25  80 W8        30.16R WCI  23
MARION +       CLOUDY    31  26  83 W7        30.16R WCI  24
MT COMFORT *+  CLOUDY    32  23  69 W5        30.16S WCI  27
SHELBYVILLE    CLOUDY    34  27  75 NW8       30.14S WCI  27
ZIONSVILLE +   CLOUDY    30  24  77 W5        30.16R WCI  26

$$

INZ033-034-041-042-049-050-058-059-282100-
EAST CENTRAL INDIANA

CITY           SKY/WX    TMP DP  RH WIND       PRES   REMARKS
MUNCIE         CLOUDY    33  27  78 NW7       30.14R WCI  27

$$

INZ060-061-067>069-081>083-085>088-282100-
SOUTHWEST INDIANA

CITY           SKY/WX    TMP DP  RH WIND       PRES   REMARKS
EVANSVILLE     CLOUDY    36  29  75 N8        30.18F
HUNTINGBURG *+ CLOUDY    34  27  75 N7        30.18R WCI  28
WASHINGTON +   CLOUDY    33  26  78 NW6       30.19R WCI  27

$$

INZ062-063-066-070>080-084-089>092-282100-
SOUTH CENTRAL AND SOUTHEAST INDIANA

CITY           SKY/WX    TMP DP  RH WIND       PRES   REMARKS
BLOOMINGTON    CLOUDY    33  28  81 NW3       30.16S

$$



USA.gov is the U.S. government's official web portal to all federal, state and local government web resources and services.